Aitkin, MN

9:24 AM CDT on March 26, 2017 (GMT -0500)
Aitkin Municipal / Steve Kurtz Field

Weather History for KAIT - October, 2012

Change the Weather History Date:

Friday, October 12, 2012

  Actual Average Record
Temperature  
Mean Temperature 32 °F -  
Max Temperature 48 °F 59 °F 75 °F (1960)
Min Temperature 17 °F 35 °F 17 °F (2012)
Degree Days  
Heating Degree Days 32    
Moisture  
Dew Point 15 °F    
Average Humidity 52    
Maximum Humidity 86    
Minimum Humidity 17    
Precipitation  
Precipitation 0.00 in - - ()
Sea Level Pressure  
Sea Level Pressure 30.26 in    
Wind  
Wind Speed 4 mph (SSE)    
Max Wind Speed 15 mph    
Max Gust Speed 23 mph    
Visibility 10 miles    
Events      
Averages and records for this station are not official NWS values.
T = Trace of Precipitation, MM = Missing Value Source: NWS Daily Summary

Daily Weather History Graph

Daily Weather History Graph

Search for Another Location

Airport or City:

Trip Planner

Search our weather history database for the weather conditions in past years. The results will help you decide how hot, cold, wet, or windy it might be!

Date:

Astronomy

Oct. 12, 2012 Rise Set
Actual Time 7:28 AM CDT 6:32 PM CDT
Civil Twilight 6:58 AM CDT 7:02 PM CDT
Nautical Twilight 6:23 AM CDT 7:37 PM CDT
Astronomical Twilight 5:48 AM CDT 8:12 PM CDT
Moon 4:02 AM CDT (10/12) 4:50 PM CDT (10/12)
Length of Visible Light 12h 04m
Length of Day
11h 03m
Waning Crescent, 10% of the Moon is Illuminated
Oct 12
Waning Crescent
Oct 15
New
Oct 21
First Quarter
Oct 29
Full
Nov 6
Last Quarter

Hourly Weather History & Observations

Time (CDT) Temp. Windchill Dew Point Humidity Pressure Visibility Wind Dir Wind Speed Gust Speed Precip Events Conditions
12:32 AM 21.2 °F - 15.8 °F 80% 30.37 in 10.0 mi Calm Calm - N/A   Clear
12:53 AM 21.2 °F - 15.8 °F 80% 30.37 in 10.0 mi Calm Calm - N/A   Clear
1:13 AM 21.2 °F - 15.8 °F 80% 30.38 in 10.0 mi Calm Calm - N/A   Clear
1:32 AM 23.0 °F - 17.6 °F 80% 30.38 in 10.0 mi Calm Calm - N/A   Clear
1:53 AM 21.2 °F - 15.8 °F 80% 30.38 in 10.0 mi Calm Calm - N/A   Clear
2:13 AM 21.2 °F - 15.8 °F 80% 30.38 in 10.0 mi Calm Calm - N/A   Clear
2:33 AM 21.2 °F - 15.8 °F 80% 30.38 in 10.0 mi Calm Calm - N/A   Clear
2:53 AM 21.2 °F - 15.8 °F 80% 30.38 in 10.0 mi Calm Calm - N/A   Clear
3:12 AM 19.4 °F - 15.8 °F 86% 30.38 in 10.0 mi Calm Calm - N/A   Clear
3:53 AM 19.4 °F - 14.0 °F 80% 30.38 in 10.0 mi Calm Calm - N/A   Clear
4:12 AM 19.4 °F - 15.8 °F 86% 30.38 in 10.0 mi Calm Calm - N/A   Clear
4:33 AM 19.4 °F - 12.2 °F 74% 30.39 in 10.0 mi Calm Calm - N/A   Clear
5:12 AM 19.4 °F - 12.2 °F 74% 30.39 in 10.0 mi Calm Calm - N/A   Clear
5:33 AM 19.4 °F - 14.0 °F 80% 30.39 in 10.0 mi Calm Calm - N/A   Clear
5:52 AM 19.4 °F - 14.0 °F 80% 30.38 in 10.0 mi Calm Calm - N/A   Clear
6:12 AM 19.4 °F - 14.0 °F 80% 30.38 in 10.0 mi Calm Calm - N/A   Clear
6:33 AM 19.4 °F - 14.0 °F 80% 30.39 in 10.0 mi Calm Calm - N/A   Clear
6:52 AM 17.6 °F - 12.2 °F 79% 30.39 in 10.0 mi Calm Calm - N/A   Clear
7:12 AM 17.6 °F - 12.2 °F 79% 30.38 in 10.0 mi Calm Calm - N/A   Clear
7:33 AM 17.6 °F - 10.4 °F 73% 30.39 in 10.0 mi Calm Calm - N/A   Clear
7:52 AM 17.6 °F - 12.2 °F 79% 30.39 in 10.0 mi Calm Calm - N/A   Clear
8:12 AM 19.4 °F - 12.2 °F 74% 30.39 in 10.0 mi Calm Calm - N/A   Clear
8:33 AM 21.2 °F - 15.8 °F 80% 30.39 in 10.0 mi Calm Calm - N/A   Clear
9:12 AM 30.2 °F - 24.8 °F 80% 30.38 in 10.0 mi Calm Calm - N/A   Clear
9:33 AM 33.8 °F 29.6 °F 26.6 °F 75% 30.36 in 10.0 mi SE 4.6 mph - N/A   Clear
9:53 AM 35.6 °F 30.7 °F 26.6 °F 70% 30.37 in 10.0 mi SE 5.8 mph - N/A   Clear
10:12 AM 37.4 °F 30.8 °F 26.6 °F 65% 30.36 in 10.0 mi SSE 9.2 mph - N/A   Clear
10:33 AM 39.2 °F 33.0 °F 26.6 °F 61% 30.35 in 10.0 mi SSE 9.2 mph - N/A   Clear
10:52 AM 41.0 °F 34.7 °F 24.8 °F 53% 30.34 in 10.0 mi South 10.4 mph 17.3 mph N/A   Clear
11:13 AM 42.8 °F 36.6 °F 24.8 °F 49% 30.34 in 10.0 mi South 11.5 mph 17.3 mph N/A   Clear
11:33 AM 42.8 °F 35.8 °F 23.0 °F 46% 30.33 in 10.0 mi South 13.8 mph 18.4 mph N/A   Clear
12:13 PM 42.8 °F 37.5 °F 21.2 °F 42% 30.33 in 10.0 mi South 9.2 mph 18.4 mph N/A   Clear
12:33 PM 44.6 °F 38.1 °F 21.2 °F 39% 30.32 in 10.0 mi SSW 13.8 mph 18.4 mph N/A   Clear
12:52 PM 44.6 °F 38.8 °F 21.2 °F 39% 30.30 in 10.0 mi South 11.5 mph 17.3 mph N/A   Clear
1:33 PM 46.4 °F 41.1 °F 19.4 °F 34% 30.28 in 10.0 mi SSE 11.5 mph 17.3 mph N/A   Clear
2:52 PM 48.2 °F - 14.0 °F 25% 30.23 in 10.0 mi SSE 13.8 mph 21.9 mph N/A   Scattered Clouds
3:33 PM 48.2 °F - 12.2 °F 24% 30.21 in 10.0 mi SSE 12.7 mph 17.3 mph N/A   Clear
3:52 PM 48.2 °F - 8.6 °F 20% 30.20 in 10.0 mi SSE 15.0 mph 23.0 mph N/A   Scattered Clouds
4:13 PM 48.2 °F - 8.6 °F 20% 30.18 in 10.0 mi SSE 15.0 mph 18.4 mph N/A   Scattered Clouds
4:33 PM 48.2 °F - 6.8 °F 19% 30.17 in 10.0 mi South 12.7 mph 18.4 mph N/A   Scattered Clouds
4:52 PM 48.2 °F - 8.6 °F 20% 30.17 in 10.0 mi South 12.7 mph 19.6 mph N/A   Clear
5:13 PM 48.2 °F - 6.8 °F 19% 30.15 in 10.0 mi SSE 15.0 mph 19.6 mph N/A   Clear
5:33 PM 48.2 °F - 5.0 °F 17% 30.14 in 10.0 mi SSE 11.5 mph 18.4 mph N/A   Clear
5:52 PM 46.4 °F 41.1 °F 6.8 °F 20% 30.12 in 10.0 mi South 11.5 mph 20.7 mph N/A   Clear
6:13 PM 46.4 °F 41.5 °F 6.8 °F 20% 30.11 in 10.0 mi SSE 10.4 mph 17.3 mph N/A   Clear
6:33 PM 44.6 °F 40.2 °F 8.6 °F 23% 30.10 in 10.0 mi SSE 8.1 mph - N/A   Clear
6:52 PM 44.6 °F 40.7 °F 10.4 °F 25% 30.09 in 10.0 mi SSE 6.9 mph - N/A   Clear
7:13 PM 44.6 °F 40.7 °F 10.4 °F 25% 30.08 in 10.0 mi SSE 6.9 mph - N/A   Clear
7:52 PM 42.8 °F 40.1 °F 12.2 °F 29% 30.07 in 10.0 mi ESE 4.6 mph - N/A   Clear
8:13 PM 42.8 °F 38.6 °F 12.2 °F 29% 30.05 in 10.0 mi SE 6.9 mph - N/A   Clear
8:33 PM 44.6 °F 41.4 °F 8.6 °F 23% 30.04 in 10.0 mi SSE 5.8 mph - N/A   Mostly Cloudy
8:52 PM 44.6 °F 40.7 °F 8.6 °F 23% 30.03 in 10.0 mi SSE 6.9 mph - N/A   Overcast
9:13 PM 44.6 °F 40.2 °F 8.6 °F 23% 30.03 in 10.0 mi SSE 8.1 mph - N/A   Overcast
9:33 PM 44.6 °F 40.2 °F 10.4 °F 25% 30.02 in 10.0 mi SSE 8.1 mph - N/A   Overcast
10:13 PM 46.4 °F 41.5 °F 15.8 °F 29% 29.99 in 10.0 mi SSE 10.4 mph 17.3 mph N/A   Overcast
10:52 PM 46.4 °F 40.4 °F 14.0 °F 27% 29.97 in 10.0 mi SSE 13.8 mph 23.0 mph N/A   Overcast
11:13 PM 46.4 °F 41.1 °F 15.8 °F 29% 29.97 in 10.0 mi SSE 11.5 mph 17.3 mph N/A   Overcast
11:32 PM 46.4 °F 40.4 °F 15.8 °F 29% 29.96 in 10.0 mi SSE 13.8 mph 18.4 mph N/A   Overcast